Stations météo

Publicité
Socoa, France (7600): Température de l'air & dewpoint: 10.08.2017 17:00:00 - 16.08.2017 17:00:00 (CEST)Socoa, France (7600): Vitesse du vent & gusts: 10.08.2017 17:00:00 - 16.08.2017 17:00:00 (CEST)Socoa, France (7600): Direction du vent: 10.08.2017 17:00:00 - 16.08.2017 17:00:00 (CEST)Socoa, France (7600): reduced air pressure: 10.08.2017 17:00:00 - 16.08.2017 17:00:00 (CEST)Socoa, France (7600): visibility: 10.08.2017 17:00:00 - 16.08.2017 17:00:00 (CEST)Socoa, France (7600): Quantités de précipitations: 10.08.2017 17:00:00 - 16.08.2017 17:00:00 (CEST)
Date & Time tt [°C] td [°C] ff [km/h] ff [knt] fx [km/h] fx [knt] dd ppp [hPa] vv [km] rr [mm]
16.08.2017 17:00:00 24,4 16,4 10 5 16 9 N 1022,8 - 0,0
16.08.2017 16:00:00 23,4 16,0 14 7 19 10 NNW 1022,8 - 0,0
16.08.2017 15:00:00 22,8 16,6 11 6 18 10 NNW 1022,8 - 0,0
16.08.2017 14:00:00 22,2 16,9 10 5 17 9 NNW 1022,9 - 0,0
16.08.2017 13:00:00 22,2 17,1 14 7 18 10 NNW 1023,0 - 0,0
16.08.2017 12:00:00 24,1 17,6 8 4 11 6 N 1022,7 - 0,0
16.08.2017 11:00:00 21,2 16,6 3 2 13 7 NE 1022,8 20 0,0
16.08.2017 10:00:00 19,8 17,0 7 4 12 7 S 1022,6 - 0,0
16.08.2017 09:00:00 19,4 17,0 5 3 13 7 SE 1022,7 - 0,0
16.08.2017 08:00:00 19,3 17,3 9 5 18 10 E 1022,3 15 0,0
16.08.2017 07:00:00 19,8 17,0 5 3 13 7 ESE 1021,8 - 0,0
16.08.2017 06:00:00 19,8 17,0 8 4 15 8 ESE 1021,3 - 0,0
16.08.2017 05:00:00 19,9 17,5 7 4 14 8 E 1021,2 20 0,0
16.08.2017 04:00:00 20,0 17,8 5 3 8 4 SSE 1021,5 - 0,0
16.08.2017 03:00:00 20,2 18,0 5 3 13 7 S 1021,8 - 0,0
16.08.2017 02:00:00 20,6 17,6 8 4 12 7 NE 1022,4 - 0,0
16.08.2017 01:00:00 20,7 17,5 9 5 15 8 N 1022,8 - 0,0
16.08.2017 00:00:00 20,7 17,3 9 5 18 10 N 1022,7 - 0,0
15.08.2017 23:00:00 20,8 17,6 14 7 18 10 NNW 1022,4 20 0,0
15.08.2017 22:00:00 20,8 18,4 13 7 17 9 W 1022,0 - 0,0
15.08.2017 21:00:00 21,0 18,0 8 5 14 8 WNW 1021,6 - 0,0
15.08.2017 20:00:00 21,4 18,0 4 2 9 5 WSW 1021,3 20 0,0
15.08.2017 19:00:00 21,8 18,2 8 5 15 8 WSW 1021,2 - 0,0
15.08.2017 18:00:00 21,6 18,0 10 5 18 10 WNW 1021,2 - 0,0
15.08.2017 17:00:00 21,6 17,6 13 7 23 12 NW 1021,0 20 0,0
15.08.2017 16:00:00 21,8 17,8 15 8 22 12 NW 1020,8 - 0,0
15.08.2017 15:00:00 21,9 17,5 16 9 21 12 NW 1020,5 - 0,0
15.08.2017 14:00:00 22,6 17,7 14 8 18 10 NW 1020,0 - 0,0
15.08.2017 13:00:00 22,8 17,9 10 6 16 9 NW 1019,6 - 0,0
15.08.2017 12:00:00 22,1 18,3 12 7 17 9 NW 1019,7 - 0,0
15.08.2017 11:00:00 21,6 18,4 12 7 19 10 NNW 1019,5 - 0,4
15.08.2017 10:00:00 21,3 18,5 16 9 21 12 NW 1019,3 - 0,0
15.08.2017 09:00:00 21,4 19,3 16 9 21 12 W 1019,1 - 0,0
15.08.2017 08:00:00 21,4 19,5 10 5 16 8 W 1018,3 8 0,0
15.08.2017 07:00:00 21,2 19,1 11 6 15 8 WNW 1017,9 - 0,0
15.08.2017 06:00:00 21,3 19,4 11 6 17 9 WNW 1017,8 - 0,0
15.08.2017 05:00:00 21,4 19,3 9 5 21 11 WNW 1018,0 - 0,0
15.08.2017 04:00:00 21,5 19,6 18 10 29 16 W 1017,8 - 0,0
15.08.2017 03:00:00 21,4 19,5 16 9 24 13 W 1017,7 - 0,0
15.08.2017 02:00:00 21,5 19,8 15 8 27 15 W 1018,0 20 0,0
15.08.2017 01:00:00 21,6 19,9 21 12 34 19 W 1017,7 - 0,0
15.08.2017 00:00:00 21,8 20,1 21 11 29 16 W 1017,4 - 0,0
14.08.2017 23:00:00 22,3 20,0 13 7 41 22 W 1017,5 20 0,0
14.08.2017 22:00:00 22,7 18,7 22 12 63 34 W 1015,5 - 0,0
14.08.2017 21:00:00 23,3 18,8 39 21 63 34 WSW 1014,4 - 0,0
14.08.2017 20:00:00 25,0 19,1 42 23 64 35 WSW 1012,0 20 0,0
14.08.2017 19:00:00 33,4 21,2 16 8 22 12 E 1010,4 - 0,0
14.08.2017 18:00:00 35,6 16,8 16 9 23 12 E 1010,3 - 0,0
14.08.2017 17:00:00 36,2 16,4 13 7 21 11 ESE 1010,7 - 0,0
14.08.2017 16:00:00 36,6 14,6 10 5 29 16 ESE 1011,1 - 0,0
14.08.2017 15:00:00 35,3 15,1 17 9 35 19 SSE 1011,9 - 0,0
14.08.2017 14:00:00 33,5 16,8 16 8 39 21 S 1012,5 20 0,0
14.08.2017 13:00:00 27,6 20,2 21 11 27 15 NE 1013,0 - 0,0
14.08.2017 12:00:00 27,0 20,3 15 8 23 13 NE 1013,3 - 0,0
14.08.2017 11:00:00 25,0 19,4 7 4 13 7 NE 1013,7 18 0,0
14.08.2017 10:00:00 21,7 17,7 3 2 14 8 NE 1013,9 - 0,0
14.08.2017 09:00:00 19,5 17,6 11 6 16 9 ESE 1014,5 - 0,0
14.08.2017 08:00:00 16,5 15,7 8 5 16 8 SE 1014,8 15 0,0
14.08.2017 07:00:00 16,4 15,4 9 5 13 7 ESE 1014,9 - 0,0
14.08.2017 06:00:00 16,7 15,6 5 3 11 6 SE 1015,4 - 0,0
14.08.2017 05:00:00 17,2 16,1 10 5 13 7 S 1015,9 - 0,0
14.08.2017 04:00:00 17,8 16,1 11 6 19 11 SSW 1016,4 - 0,0
14.08.2017 03:00:00 18,3 16,3 14 8 20 11 SSW 1016,8 - 0,0
14.08.2017 02:00:00 18,7 16,5 14 8 20 11 SW 1017,3 - 0,0
14.08.2017 01:00:00 19,2 16,8 14 7 18 10 SSW 1017,7 - 0,0
14.08.2017 00:00:00 19,3 17,3 12 7 16 9 SW 1018,1 - 0,0
13.08.2017 23:00:00 19,0 16,6 7 4 9 5 SW 1018,2 20 0,0
13.08.2017 22:00:00 20,1 16,5 6 4 8 4 WSW 1018,0 - 0,0
13.08.2017 21:00:00 22,3 16,3 5 3 9 5 W 1018,0 - 0,0
13.08.2017 20:00:00 23,6 16,4 5 3 11 6 NW 1018,1 - 0,0
13.08.2017 19:00:00 23,8 16,3 6 4 15 8 N 1018,4 - 0,0
13.08.2017 18:00:00 23,6 16,1 9 5 17 9 N 1018,8 - 0,0
13.08.2017 17:00:00 23,6 16,4 11 6 18 10 N 1019,3 - 0,0
13.08.2017 16:00:00 23,9 16,4 13 7 21 11 N 1019,8 - 0,0
13.08.2017 15:00:00 23,4 16,0 11 6 19 10 N 1020,3 - 0,0
13.08.2017 14:00:00 23,2 15,5 12 6 19 10 N 1020,7 20 0,0
13.08.2017 13:00:00 22,8 15,6 11 6 16 9 N 1021,3 - 0,0
13.08.2017 12:00:00 22,1 15,0 8 5 12 7 NNW 1021,8 - 0,0
13.08.2017 11:00:00 21,9 15,3 5 3 10 5 N 1021,9 - 0,0
13.08.2017 10:00:00 20,0 14,6 2 1 7 4 E 1022,0 - 0,0
13.08.2017 09:00:00 16,9 15,4 3 2 8 4 S 1022,0 - 0,0
13.08.2017 08:00:00 15,1 14,1 4 2 10 6 S 1022,1 20 0,0
13.08.2017 07:00:00 15,2 14,2 9 5 12 7 S 1022,1 - 0,0
13.08.2017 06:00:00 15,7 14,7 9 5 11 6 S 1022,0 - 0,0
13.08.2017 05:00:00 16,0 14,9 10 5 13 7 S 1022,3 - 0,0
13.08.2017 04:00:00 16,2 14,9 3 2 7 4 SSE 1022,6 - 0,0
13.08.2017 03:00:00 16,3 15,0 4 2 8 4 SSE 1022,9 - 0,0
13.08.2017 02:00:00 16,6 15,0 4 2 11 6 S 1023,2 - 0,0
13.08.2017 01:00:00 16,8 15,1 9 5 12 6 S 1023,5 - 0,0
13.08.2017 00:00:00 17,1 15,1 8 4 11 6 S 1023,7 - 0,0
12.08.2017 23:00:00 18,1 15,2 8 4 15 8 S 1023,7 - 0,0
12.08.2017 22:00:00 19,2 14,9 11 6 19 11 NNE 1023,7 - 0,0
12.08.2017 21:00:00 20,4 15,2 13 7 20 11 NNE 1023,4 - 0,0
12.08.2017 20:00:00 21,2 14,6 16 9 21 11 N 1023,4 - 0,0
12.08.2017 19:00:00 21,7 14,3 16 9 19 11 N 1023,2 - 0,0
12.08.2017 18:00:00 21,9 14,3 13 7 22 12 N 1023,3 - 0,0
12.08.2017 17:00:00 22,1 14,2 13 7 22 12 N 1023,5 20 0,0
12.08.2017 16:00:00 22,1 14,2 14 8 26 14 N 1024,1 - 0,0
12.08.2017 15:00:00 22,1 14,0 17 9 24 13 N 1024,3 - 0,0
12.08.2017 14:00:00 21,3 13,2 17 9 27 14 N 1024,7 20 0,0
12.08.2017 13:00:00 22,0 14,1 13 7 20 11 N 1025,1 - 0,0
12.08.2017 12:00:00 21,5 13,9 10 5 14 7 N 1025,2 - 0,0
12.08.2017 11:00:00 20,5 13,2 6 3 12 7 NNE 1025,1 20 0,0
12.08.2017 10:00:00 19,4 14,0 3 1 14 7 S 1025,2 - 0,0
12.08.2017 09:00:00 15,4 12,7 11 6 16 9 S 1025,2 - 0,0
12.08.2017 08:00:00 13,9 12,1 14 8 17 9 S 1024,9 20 0,0
12.08.2017 07:00:00 13,3 11,9 15 8 17 9 S 1024,5 - 0,0
12.08.2017 06:00:00 13,4 12,0 12 6 15 8 S 1024,2 - 0,0
12.08.2017 05:00:00 13,7 12,1 12 6 16 8 S 1024,6 - 0,0
12.08.2017 04:00:00 14,2 12,2 12 7 16 9 S 1025,0 - 0,0
12.08.2017 03:00:00 14,8 12,3 14 7 15 8 S 1025,4 - 0,0
12.08.2017 02:00:00 15,1 12,4 13 7 16 8 S 1025,6 - 0,0
12.08.2017 01:00:00 15,2 12,3 13 7 15 8 S 1025,7 - 0,0
12.08.2017 00:00:00 15,5 12,6 12 7 14 8 S 1025,8 - 0,0
11.08.2017 23:00:00 16,6 12,5 11 6 14 8 SSW 1026,0 - 0,0
11.08.2017 22:00:00 18,2 12,4 8 4 16 9 W 1025,7 - 0,0
11.08.2017 21:00:00 19,2 12,2 10 5 19 10 WNW 1025,6 - 0,0
11.08.2017 20:00:00 20,7 12,1 11 6 25 13 NW 1025,8 20 0,0
11.08.2017 19:00:00 21,0 12,2 16 8 26 14 WNW 1025,9 - 0,0
11.08.2017 18:00:00 21,8 12,1 16 9 23 12 WNW 1026,0 - 0,0
11.08.2017 17:00:00 22,3 12,0 17 9 26 14 WNW 1026,0 20 0,0
11.08.2017 16:00:00 22,1 10,9 19 10 29 15 WNW 1026,2 - 0,0
11.08.2017 15:00:00 22,3 12,3 18 10 29 16 W 1026,1 - 0,0
11.08.2017 14:00:00 21,7 12,8 21 11 33 18 WNW 1025,9 20 0,0
11.08.2017 13:00:00 21,5 12,1 23 12 34 19 WNW 1026,2 - 0,0
11.08.2017 12:00:00 21,3 12,2 18 10 - - WNW 1026,1 - 0,0
11.08.2017 11:00:00 19,1 11,4 20 11 30 16 W 1025,8 - 0,0
11.08.2017 10:00:00 17,6 11,8 17 9 25 14 WSW 1025,6 - 0,0
11.08.2017 09:00:00 16,7 11,4 16 8 26 14 SW 1025,7 - 0,0
11.08.2017 08:00:00 15,8 10,8 16 9 24 13 SW 1025,6 20 0,0
11.08.2017 07:00:00 16,7 10,5 16 9 40 22 WSW 1025,1 - 0,0
11.08.2017 06:00:00 18,3 11,6 27 15 38 21 WNW 1024,8 - 0,0
11.08.2017 05:00:00 18,4 11,2 27 15 41 22 WNW 1025,1 - 0,0
11.08.2017 04:00:00 18,1 10,5 28 15 46 25 NW 1025,5 - 0,0
11.08.2017 03:00:00 18,3 10,9 34 18 46 25 NNW 1026,1 - 0,0
11.08.2017 02:00:00 18,1 10,0 30 16 46 25 NW 1026,6 - 0,0
11.08.2017 01:00:00 18,2 10,8 31 17 45 25 NW 1027,0 - 0,0
11.08.2017 00:00:00 18,4 11,2 33 18 48 26 WNW 1027,1 - 0,0
10.08.2017 23:00:00 18,7 12,4 36 19 50 27 WNW 1026,9 - 0,0
10.08.2017 22:00:00 18,8 13,2 39 21 58 32 WNW 1026,6 - 0,2
10.08.2017 21:00:00 18,5 14,0 38 21 50 27 WNW 1026,0 - 0,6
10.08.2017 20:00:00 19,6 12,4 35 19 46 25 WNW 1026,2 15 0,0
10.08.2017 19:00:00 20,5 12,7 35 19 46 25 WNW 1026,1 - 0,0
10.08.2017 18:00:00 20,0 13,0 35 19 48 26 WNW 1026,2 - 0,0
10.08.2017 17:00:00 20,1 13,1 32 17 46 25 NW 1026,1 18 0,0

tt = Température de l'air
td = dewpoint
ff = Vitesse du vent
fx = gusts
dd = Direction du vent
ppp = reduced air pressure
vv = visibility
rr = Quantités de précipitations

stations d'obs. à proximité